Regional Weather Roundup
Issued by NWS

Home | Current Version | Previous Version | Graphics & Text | Print | Product List | Glossary On
Versions: 1 2 3 4 5 6 7 8 9 10 11 12 13 14 15 16 17 18 19 20 21 22 23 24 25 26 27 28 29 30 31 32 33 34 35 36 37 38 39 40 41 42 43 44 45 46 47 48 49
000
ASUS45 KBOU 191107
RWRCO

WEATHER ROUNDUP FOR COLORADO
NATIONAL WEATHER SERVICE DENVER/BOULDER CO
500 AM MDT FRI SEP 19 2014

NOTE: "FAIR" INDICATES FEW OR NO CLOUDS BELOW 12000 FEET WITH NO
SIGNIFICANT WEATHER AND/OR OBSTRUCTIONS TO VISIBILITY.

COZ001>005-013-030-031-191200-
...NORTHWEST COLORADO...

CITY           SKY/WX    TMP DP  RH WIND       PRES   REMARKS
CRAIG          CLEAR     47  40  76 VRB3      30.11R
HAYDEN         MOCLDY    54  37  54 E6        30.11R
MEEKER         PTCLDY    52  39  61 E3        30.11R
MOUNT WERNER   NOT AVBL
STEAMBOAT SPGS MOCLDY    48  40  73 CALM      30.13R
WALDEN         PTCLDY    41  32  70 CALM      30.20R
$$

COZ006>008-011-191200-
...WEST CENTRAL VALLEYS...

CITY           SKY/WX    TMP DP  RH WIND       PRES   REMARKS
GRAND JUNCTION CLEAR     60  41  49 SE5       29.98R
MONTROSE       CLEAR     58  44  60 S9        30.07R
EAGLE          PTCLDY    46  39  76 E5        30.16R
RIFLE          CLEAR     52  42  69 CALM      30.06R
DELTA          PTCLDY    60  42  51 NE7       30.03R
NUCLA          CLEAR     54  41  62 E5        30.11R
$$

COZ017>023-064>068-191200-
...SOUTHWEST COLORADO...

CITY           SKY/WX    TMP DP  RH WIND       PRES   REMARKS
DURANGO        CLEAR     48  41  76 CALM      30.15R
CORTEZ         CLEAR     48  43  82 E5        30.08S
PAGOSA SPRINGS CLEAR     47  36  64 CALM      30.22R
TELLURIDE      NOT AVBL
WOLF CREEK PAS PTCLDY    41  39  93 SW14      30.47R
$$

COZ009-010-012-014-032>034-037-058>063-191200-
...CENTRAL COLORADO...

CITY           SKY/WX    TMP DP  RH WIND       PRES   REMARKS
ASPEN          PTCLDY    45  37  73 S5        30.19R
BUENA VISTA    CLEAR     46  31  56 NW6       30.23S
COPPER MTN     NOT AVBL
BERTHOUD PASS  FAIR      43  41  93 NW18      30.51S
COTTONWOOD PAS CLEAR     55  28  35 W5        30.33S
GUNNISON       CLEAR     41  30  65 CALM      30.24R
KREMMLING      PTCLDY    41  36  81 CALM      30.20R
LEADVILLE      CLEAR     38  27  64 CALM      30.34R
MONARCH PASS   CLEAR     45  30  57 SW13      30.57S
SALIDA         CLEAR     52  32  45 NW6       30.27S
SUNLIGHT       MOCLDY    55  36  47 CALM      30.42R
WILKERSON PASS NOT AVBL
$$

COZ069>075-191200-
...SAN LUIS VALLEY/SANGRE DE CRISTO MOUNTAINS...

CITY           SKY/WX    TMP DP  RH WIND       PRES   REMARKS
ALAMOSA        PTCLDY    39  34  82 SW3       30.18R
LA VETA PASS   NOT AVBL
SAGUACHE       NOT AVBL
$$

COZ035-036-038>040-191200-
...NORTHERN COLORADO FRONT RANGE...

CITY           SKY/WX    TMP DP  RH WIND       PRES   REMARKS
DENVER INTL AP CLEAR     68  32  26 S20       29.95S
DMNS CITY PARK   N/A     68  32  26 S12       29.96R
AURORA         CLEAR     67  32  27 S17       29.98S
FRONT RANGE AP CLEAR     64  37  36 S14       29.97F
ERIE MUNI ARPT CLEAR     53  41  63 CALM      29.94R
BOULDER MUN AP CLEAR     59  37  44 SW3       29.95R
CENTENNIAL     CLEAR     62  33  33 S12       30.00F
BROOMFIELD     CLEAR     63  34  34 SW7       29.98R
FORT COLLINS   PTCLDY    55  45  67 NW6       29.95R
LONGMONT       PTCLDY    53  42  67 CALM      29.95S
$$

COZ041-046-047-076>085-087-088-191200-
...PIKES PEAK/PALMER DIVIDE AND SOUTHERN FOOTHILLS...

CITY           SKY/WX    TMP DP  RH WIND       PRES   REMARKS
COLO. SPRINGS  CLEAR     52  44  74 NE5       30.07F
A. F. ACADEMY  CLEAR     46  41  83 N10       30.09S
ELLICOTT       NOT AVBL
FALCON         CLEAR     54  44  69 SW5       30.12S
FORT CARSON    CLEAR     54  47  77 NW10      30.04S
LIMON          CLEAR     55  46  71 CALM      30.01S
MONUMENT HILL  CLEAR     57  36  44 S10       30.10R
TRINIDAD       CLEAR     59  52  77 SW12      30.05R
$$

COZ042>045-048>051-090-091-191200-
...NORTHEAST COLORADO...

CITY           SKY/WX    TMP DP  RH WIND       PRES   REMARKS
GREELEY ARPT   PTCLDY    52  39  62 W6        29.93R
AKRON          CLEAR     65  52  62 SW16      29.94S
BURLINGTON     CLEAR     61  57  87 SW13      29.96R
WRAY           CLEAR     59  56  89 SW7       29.91R
STERLING       CLEAR     59  55  88 S5        29.88S
HOLYOKE        CLEAR     61  55  82 SW8       29.89R
FORT MORGAN    CLEAR     56  48  75 S3        29.92S
$$

COZ086-089-092>099-191200-
...SOUTHEAST COLORADO...

CITY           SKY/WX    TMP DP  RH WIND       PRES   REMARKS
PUEBLO         CLEAR     52  46  80 SW5       29.98S
LA JUNTA       CLEAR     53  51  93 N3        29.97R
LAMAR          CLEAR     56  54  93 S3        29.95R
SPRINGFIELD      N/A     60  60 100 S15       30.01S
$$


USA.gov is the U.S. government's official web portal to all federal, state and local government web resources and services.